Location: Biberbr�cke
(47.1568°N, 8.7235°E)
Time: 16:32:39
(UTC+00:00)

Daily predictions for brighter satellites

Satellite Brightness Start Highest point End
(mag) Time Altitude Azimuth Time Altitude Azimuth Time Altitude Azimuth
USA 267 4.3 19:50:54 10° E 19:57:01 43° NNE 20:03:08 10° NW
Alouette 2 Rocket 4.4 19:57:24 10° N 20:00:57 35° ENE 20:05:28 10° SE
Cosmos 2322 Rocket 2.3 19:55:54 10° SSW 20:01:31 83° WNW 20:07:10 10° NNE
SL-08 ROCKET BODY 4.5 19:56:44 10° S 20:02:35 66° E 20:08:35 10° NNE
SPOT 3 Rocket 4.2 19:57:56 10° S 20:03:03 57° W 20:08:13 10° NNW
NOSS 7 (D) 3.9 20:00:49 10° SSW 20:03:36 52° SE 20:06:14 10° NE
Cosmos 2237 4.3 19:58:38 10° S 20:04:16 62° ESE 20:09:56 10° NNE
Cosmos 1455 2.2 20:08:16 10° N 20:12:08 79° E 20:15:59 10° SSE
Cosmos 1825 Rocket 3.9 20:11:49 10° SSE 20:16:04 48° E 20:20:22 10° NNE
ATLAS CENTAUR R/B 2.7 20:15:24 10° NNW 20:18:36 26° NE 20:21:43 10° E
Cosmos 1703 3.4 20:16:50 10° S 20:20:37 57° E 20:24:27 10° NNE
COSMOS 2428 3.7 20:16:57 10° SSE 20:21:37 27° ESE 20:26:18 10° NE
Cosmos 1812 Rocket 4.1 20:18:04 10° NNW 20:22:21 60° W 20:26:36 10° S
Cosmos 1844 3.8 20:18:16 10° NNW 20:24:05 73° ENE 20:29:32 11° SE
Cosmos 2322 4.0 20:19:54 10° S 20:25:20 47° ESE 20:30:49 10° NE
Cosmos 783 Rocket 4.5 20:26:17 10° SSW 20:31:30 72° ESE 20:36:43 10° NNE
Cosmos 2263 Rocket 4.4 20:28:05 10° NW 20:31:55 19° W 20:35:43 10° SW
Cosmos 1709 Rocket 4.1 20:26:00 10° S 20:32:10 63° E 20:38:27 10° NNE
Nadezhda 1 Rocket 4.4 20:26:36 10° NNW 20:32:58 69° W 20:39:18 10° S
NOSS 3-3 (A) 4.4 20:28:34 10° S 20:33:49 37° ESE 20:39:37 10° NE
NOSS 3-3 (C) 4.4 20:28:41 10° S 20:33:56 36° ESE 20:39:44 10° NE
MetOp-B 4.5 20:28:52 10° S 20:34:11 67° WSW 20:39:33 10° NNW
Atlas Centaur 2 3.9 20:31:28 10° SW 20:35:24 18° S 20:38:47 13° SE
Cosmos 2237 Rocket 4.0 20:33:12 11° ESE 20:35:36 14° E 20:38:24 10° ENE
Terra 2.7 20:31:40 12° SE 20:35:37 36° ENE 20:39:59 10° N
CARTOSAT-1 3.9 20:32:57 13° SSE 20:36:42 53° ENE 20:40:55 10° N
Cosmos 2333 4.3 20:31:37 10° S 20:37:06 56° ESE 20:42:41 10° NE
Cosmos 2219 Rocket 2.7 20:32:24 10° S 20:37:33 39° ESE 20:42:44 10° NE
Cosmos 2360 Rocket 2.4 20:33:45 10° SSW 20:39:24 79° WNW 20:45:06 10° NNE
IGS 5A 3.6 20:35:44 10° S 20:39:52 74° WSW 20:44:03 10° NNW
Cosmos 2333 Rocket 2.4 20:41:50 10° S 20:47:17 51° ESE 20:52:49 10° NE
ATLAS 2AS CENTAUR R/B 4.0 20:44:04 10° NW 20:51:14 39° NNE 20:57:52 10° E
Cosmos 1315 Rocket 3.3 20:47:26 10° N 20:51:25 47° ENE 20:54:13 18° SE
Resurs 01 Rocket 3.5 20:48:12 10° SSW 20:51:53 25° W 20:55:34 10° NW
Cosmos 1818 4.0 20:49:22 10° SW 20:54:46 68° NW 21:00:14 10° NNE
Cosmos-2242 3.5 20:50:37 10° NNW 20:54:54 60° W 20:59:06 11° S
Cosmos 773 Rocket 4.0 20:52:03 10° SSW 20:57:20 79° ESE 21:02:40 10° NNE
SL-16 R/B 4.3 20:53:45 10° WSW 20:58:42 30° NW 21:03:41 10° NNE
Cosmos 2221 3.4 20:55:49 10° N 20:59:52 35° ENE 21:02:29 18° SE
ERS-1 Rocket 3.0 20:56:51 15° SSE 21:01:08 86° W 21:06:13 10° NNW
GEOS 3 Rocket 3.8 20:58:05 10° NE 21:03:32 82° NW 21:08:54 10° SW
USA 215 3.2 21:00:21 10° ENE 21:06:53 65° SE 21:13:21 10° SW
Cosmos 1892 4.2 21:07:01 18° ESE 21:08:18 22° E 21:11:15 10° NE
Cosmos 2278 Rocket 2.8 21:03:30 10° NNW 21:08:59 47° NE 21:13:09 17° SE
ATLAS 5 CENTAUR R/B 2.4 21:07:25 10° WSW 21:11:31 53° NW 21:16:11 10° NE
Meteor 1-11 4.3 21:06:16 10° SSW 21:11:54 85° W 21:17:38 10° N
Cosmos 1844 Rocket 3.6 21:08:30 10° NW 21:13:40 40° WSW 21:18:16 13° S
Cosmos 1400 Rocket 4.2 21:10:34 10° NNW 21:14:11 34° W 21:17:41 10° SSW
Gblst 52 Del rocket 4.3 21:09:10 10° WNW 21:14:53 87° NNE 21:20:33 13° ESE
SPOT 5 3.1 21:13:56 17° S 21:17:51 71° WSW 21:22:41 10° NNW
SL-16 R/B 4.2 21:18:56 11° ESE 21:20:02 11° E 21:21:40 10° ENE
Lacrosse 5 rocket 4.0 21:17:22 10° NW 21:20:33 20° N 21:23:36 10° NE
USA 81 4.2 21:19:52 12° S 21:24:48 74° W 21:30:06 10° N
Cosmos 2058 3.7 21:25:00 25° SE 21:26:41 36° E 21:30:30 10° NNE
BREEZE M DEB (TANK) 2.9 21:25:51 10° W 21:27:39 25° SW 21:27:39 25° SW
Cosmos 2181 Rocket 4.3 21:22:51 10° NNW 21:29:09 66° W 21:34:15 16° S
Cosmos 1408 4.0 21:29:06 21° ESE 21:29:46 22° E 21:32:35 10° NE
In-Cosmos 22 Rocket 4.3 21:29:55 23° SSE 21:33:00 52° E 21:38:10 10° NNE
Cosmos 2074 Rocket 4.0 21:29:16 18° S 21:33:57 73° E 21:40:10 10° NNE
TSX-5 3.9 21:32:14 10° NNW 21:35:41 59° ENE 21:37:36 28° SE
Cosmos 1076 Rocket 4.0 21:36:08 28° SE 21:37:52 43° E 21:41:56 10° NNE
Cosmos 1680 Rocket 4.1 21:35:42 25° SSE 21:38:14 41° ESE 21:43:12 10° NE
USA 267 3.3 21:34:04 15° ESE 21:39:37 83° NE 21:46:13 10° NW
Cosmos 2084 3.8 21:41:50 10° NW 21:46:11 55° SW 21:48:05 31° S
Cosmos 1842 Rocket 3.8 21:42:24 10° NNW 21:46:44 65° W 21:49:02 26° S
JB-3 4.1 21:44:14 10° NNE 21:48:06 88° ESE 21:49:57 29° SSW
Cosmos 2151 4.3 21:47:18 23° ESE 21:48:25 25° E 21:51:57 10° NNE
MTI 3.8 21:48:59 10° N 21:52:04 69° WNW 21:53:10 35° SSW
Cosmos 923 Rocket 3.9 21:52:20 23° S 21:55:40 74° ESE 22:00:58 10° NNE
Cosmos 2327 Rocket 4.4 21:52:14 24° S 21:56:08 74° E 22:02:16 10° NNE
ATLAS CENTAUR R/B 2.0 21:54:09 10° NW 21:57:32 34° WSW 21:58:26 30° SSW
Cosmos 1825 3.1 21:58:08 31° ESE 21:58:48 33° E 22:02:15 10° NNE
ALOS 2 3.9 21:58:03 20° ESE 22:00:03 29° ENE 22:03:52 10° N
Cosmos 1980 3.7 21:56:55 23° S 22:00:30 67° ESE 22:06:08 10° NNE
Cosmos 2369 Rocket 4.5 21:57:13 10° N 22:00:49 17° NE 22:04:25 10° E
Cosmos 967 Rocket 4.5 21:56:18 10° SSW 22:02:47 85° ESE 22:09:18 10° NE
Cosmos 44 4.4 22:05:15 22° ESE 22:05:15 22° ESE 22:08:27 10° ENE
COSMOS 2428 3.4 22:00:01 10° SW 22:05:33 53° WNW 22:11:08 10° NNE
Cosmos 1869 4.1 22:03:50 10° NNW 22:07:38 44° W 22:09:22 27° SSW
Cosmos 1295 Rocket 4.5 22:06:31 28° S 22:09:51 68° E 22:15:56 10° NNE
GP-B 4.3 22:06:13 10° NNE 22:10:05 29° E 22:11:23 24° ESE
NOSS 0 Rocket 3.9 22:07:31 14° SSW 22:12:53 87° WNW 22:19:07 10° NNE
Terra 3.3 22:10:33 17° SW 22:13:24 29° W 22:17:34 10° NW
Cosmos 1624 Rocket 4.2 22:09:17 10° NNW 22:14:30 65° ENE 22:16:57 31° SE
NOSS 3-4 (A) 3.8 22:07:54 10° NW 22:14:54 88° NE 22:19:47 25° SE
NOSS 3-4 (C) 3.8 22:08:01 10° NW 22:15:00 87° NE 22:19:55 25° SE
Cosmos 2237 Rocket 2.1 22:14:58 22° SSW 22:18:46 86° ESE 22:24:31 10° NNE
Genesis I 3.1 22:18:36 47° S 22:19:28 64° SE 22:23:21 10° NE
Cosmos 2344 3.6 22:16:02 20° SSW 22:21:25 62° ESE 22:29:14 10° NE
Cosmos 2219 Rocket 3.6 22:16:21 10° WSW 22:21:31 38° NW 22:26:45 10° NNE
Elektron 1 4.3 22:21:21 30° SW 22:22:57 88° NW 22:28:21 10° NE
Atlas Centaur 2 4.4 22:19:47 10° SW 22:21:21 13° SSW 22:21:21 13° SSW
DELTA 2 R/B (1) 4.0 22:24:40 10° SW 22:29:43 36° S 22:30:03 36° SSE
Thor Agena Rocket 3.5 22:25:39 10° NNE 22:30:47 85° WNW 22:33:18 31° SSW
Cosmos 2333 Rocket 3.9 22:26:45 10° WSW 22:31:48 32° NW 22:36:55 10° NNE
Cosmos 2221 4.3 22:33:44 10° NW 22:37:14 24° W 22:39:20 17° SW
BREEZE-M DEB (TANK) 1.3 22:37:53 10° WNW 22:41:22 80° WNW 22:41:22 80° WNW
Iridium 2 4.2 22:37:47 10° NNW 22:41:30 50° W 22:42:26 39° SW
Cosmos 1371 Rocket 4.1 22:37:01 10° NNW 22:42:15 68° WSW 22:44:15 38° S
ATLAS 2AS CENTAUR R/B 2.8 22:35:18 10° NW 22:42:50 72° SW 22:46:25 31° SSE
Cosmos 1892 4.3 22:42:00 19° WSW 22:43:49 29° WNW 22:47:11 10° NNW
EO 1 Del DPAF 3.5 22:40:09 10° N 22:43:52 60° WNW 22:44:59 40° SW
Cosmos 1766 Rocket 3.6 22:44:24 46° SSE 22:45:30 65° E 22:49:53 10° NNE
MOS 1-B Rocket 4.4 22:37:55 10° NNE 22:45:44 82° WNW 22:49:56 25° SSW
Gbstr 26 Del rocket 4.4 22:49:28 21° E 22:49:28 21° E 22:51:18 10° ENE
Okean 3 Rocket 3.5 22:47:02 46° S 22:48:19 81° E 22:52:46 10° N
Cosmos 1328 Rocket 3.7 22:45:00 10° N 22:49:17 61° ENE 22:50:25 44° SE
Aureole 2 Rocket 2.2 22:46:28 10° NNW 22:48:59 67° N 22:48:59 67° N
USA 215 4.0 22:43:27 10° NE 22:49:50 55° NNW 22:56:10 10° W
Cosmos 1606 2.6 22:47:44 10° N 22:51:38 83° E 22:52:19 59° SSE
Cosmos 2112 Rocket 4.5 22:48:24 22° SW 22:51:48 60° WNW 22:57:07 10° NNE
Cosmos 2278 Rocket 3.3 22:47:57 10° NW 22:52:52 31° WSW 22:54:59 24° SW
Cosmos 2218 Rocket 4.1 22:50:54 34° SSE 22:53:46 66° E 23:00:02 10° NNE
Cosmos 2297 3.7 22:48:52 10° NNW 22:54:39 85° ENE 22:57:11 35° SSE
Cosmos 1420 Rocket 4.0 22:53:11 10° NNW 22:58:29 80° ENE 23:00:36 38° SSE
Cosmos 2366 rocket 4.1 22:56:35 34° SSE 22:59:27 69° E 23:05:46 10° NNE
Lacrosse 5 rocket 3.2 22:57:12 10° NW 23:00:44 28° NNE 23:04:06 10° E
Cosmos 1943 Rocket 2.8 22:55:43 10° NNW 23:01:16 50° ENE 23:04:40 22° ESE
Cosmos 1633 3.7 23:01:11 30° E 23:01:20 30° E 23:04:33 10° NNE
SL-16 R/B 2.1 23:00:46 37° S 23:03:06 74° ESE 23:08:48 10° NNE
Cosmos 1408 4.3 23:03:24 20° WSW 23:04:40 25° WNW 23:07:41 10° NNW
Cosmos 2056 Rocket 4.0 23:00:55 10° NNW 23:06:09 50° WSW 23:07:58 36° SSW
Cosmos 1959 Rocket 4.4 23:06:20 36° S 23:09:04 82° E 23:15:18 10° N
YAOGAN 11 4.4 23:09:09 39° SE 23:10:32 57° ENE 23:14:53 10° N
Cosmos 1743 Rocket 4.3 23:12:36 35° ESE 23:13:28 39° E 23:17:31 10° NNE
Cosmos 2341 Rocket 4.4 23:11:46 27° SW 23:15:10 58° WNW 23:21:19 10° N
Cosmos 332 Rocket 3.7 23:15:03 10° NNW 23:19:52 79° ENE 23:21:28 42° SSE
USA 267 4.0 23:21:24 30° SSW 23:23:04 34° SW 23:28:55 10° WNW
Meteor 2-3 Rocket 3.7 23:21:02 39° S 23:23:16 85° E 23:29:00 10° NNE
Cosmos 2151 4.3 23:23:52 23° WSW 23:25:34 32° WNW 23:29:26 10° N
Helios 1A 2.9 23:24:53 55° S 23:25:44 81° WSW 23:29:56 10° NNW
Cosmos 405 3.1 23:25:17 10° N 23:28:49 62° ENE 23:29:08 58° ESE
Meteor 1-26 Rocket 4.3 23:26:55 10° NNW 23:32:55 75° W 23:35:20 38° S
Cosmos 1452 Rocket 3.4 23:28:00 10° NNW 23:33:17 79° WSW 23:35:06 42° S
SL-8 Rocket 4.4 23:30:59 28° SW 23:34:08 55° WNW 23:40:12 10° N
CZ-4C R/B 3.5 23:27:24 10° NW 23:34:18 57° NE 23:42:18 10° ESE
Cosmos 1825 4.2 23:32:56 16° W 23:34:25 19° WNW 23:37:14 10° NNW
Cosmos 1340 3.0 23:34:23 49° WSW 23:34:59 56° WNW 23:38:43 10° N
COSMOS 2455 2.8 23:29:12 10° NNW 23:35:17 89° ENE 23:38:24 30° SSE
PSLV R/B 4.0 23:31:39 10° NNE 23:35:45 47° E 23:36:34 41° SE
ALOS 2 3.7 23:35:27 29° WSW 23:36:20 31° W 23:40:16 10° NNW
Cosmos 1408 Rocket 3.8 23:35:56 44° SW 23:37:07 62° WNW 23:41:30 10° N
Cosmos 1933 4.1 23:33:52 10° NNW 23:37:38 39° W 23:38:13 37° WSW
SL-16 R/B 4.3 23:33:11 10° ESE 23:38:07 25° ENE 23:43:05 10° N
Cosmos 1603 4.4 23:36:25 32° SSE 23:38:09 41° ESE 23:43:28 10° NE
Cosmos 1151 Rocket 3.8 23:35:09 10° NNW 23:39:10 38° W 23:40:03 34° WSW
Cosmos 1727 Rocket 4.0 23:39:08 10° NNW 23:45:20 71° W 23:48:04 35° SSW
APEX 3.9 23:42:43 10° NW 23:44:21 30° WNW 23:44:21 30° WNW
Cosmos 2369 Rocket 2.3 23:40:14 10° NNW 23:45:51 75° ENE 23:48:49 29° SE
Cosmos 44 3.8 23:43:38 25° WSW 23:45:53 48° NW 23:50:14 10° NNE
Cosmos 1500 Rocket 3.5 23:44:49 51° S 23:45:53 82° E 23:50:18 10° N
Resurs 1-4 Rocket 4.2 23:42:50 10° NE 23:45:59 16° E 23:48:44 11° ESE
GP-B 4.4 23:43:30 10° NNW 23:47:22 30° WNW 23:48:50 24° WSW
ISS -1.2 23:51:00 12° E 23:51:00 12° E 23:51:30 10° E
Cosmos 371 Rocket 3.9 23:44:52 10° NW 23:49:25 41° WSW 23:50:25 36° SW
SeaSat 1 4.0 23:46:24 10° ENE 23:50:06 21° ESE 23:51:20 19° SE
Helios 1B rocket 2.6 23:50:27 10° NNE 23:54:33 61° ESE 23:55:23 49° SSE
CREW DRAGON DEMO-1 DEB 4.0 23:54:49 21° WNW 23:56:30 42° NNW 23:59:27 10° ENE
